Hourly Data Report for October 17, 2014

All times are specified in Local Standard Time (LST). Add 1 hour to adjust for Daylight Saving Time where and when it is observed.

HALL BEACH A
NUNAVUT

68°46'33.000" N
81°14'33.000" W
9.10 m
2402354
71293
YUX

Download Data

Hourly Data (October 2014)
Hourly Data Report for October 17, 2014
Temp Definition
°C
Dew Point Temp Definition
°C
Rel Hum Definition
%
Wind Dir Definition
10's deg

Wind Spd Definition
km/h
Visibility Definition
km
Stn Press Definition
kPa
Hmdx Definition


Wind Chill Definition


Weather Definition


TIME
00:00 Legend Double Dagger -2.8 -4.1 91 36 28 16.1 101.53   -10 LegendNANA
01:00 Legend Double Dagger -4.0 -5.1 92 35 24 16.1 101.60   -11 LegendNANA
02:00 Legend Double Dagger -4.9 -6.0 92 34 30 16.1 101.68   -13 LegendNANA
03:00 Legend Double Dagger -7.6 -8.7 92 33 21 16.1 101.76   -15 LegendNANA
04:00 Legend Double Dagger -9.8 -10.6 94 33 26 16.1 101.79   -19 LegendNANA
05:00 Legend Double Dagger -11.3 -12.4 92 32 28 16.1 101.85   -21 LegendNANA
06:00 Legend Double Dagger -12.2 -13.5 90 32 32 16.1 101.88   -23 LegendNANA
07:00 Legend Double Dagger -12.6 -13.8 91 30 28 16.1 101.94   -23 LegendNANA
08:00 Legend Double Dagger -11.7 -12.8 92 31 28 16.1 101.97   -21 LegendNANA
09:00 Legend Double Dagger -11.5 -12.6 92 30 26 16.1 101.99   -21 LegendNANA
10:00 Legend Double Dagger -10.9 -12.1 91 32 21 16.1 102.01   -19 LegendNANA
11:00 Legend Double Dagger -10.9 -12.1 91 31 24 16.1 102.03   -20 LegendNANA
12:00 Legend Double Dagger -8.7 -9.8 92 32 22 16.1 102.06   -17 LegendNANA
13:00 Legend Double Dagger -10.4 -11.9 89 32 30 16.1 102.08   -20 LegendNANA
14:00 Legend Double Dagger -9.3 -10.7 90 32 22 16.1 102.13   -17 LegendNANA
15:00 Legend Double Dagger -8.6 -10.0 90 31 24 16.1 102.13   -17 LegendNANA
16:00 Legend Double Dagger -9.7 -11.2 89 31 24 16.1 102.14   -18 LegendNANA
17:00 Legend Double Dagger -12.3 -13.4 91 31 28 16.1 102.15   -22 LegendNANA
18:00 Legend Double Dagger -12.3 -13.2 93 31 26 16.1 102.14   -22 LegendNANA
19:00 Legend Double Dagger -13.6 -14.8 91 32 24 16.1 102.15   -23 LegendNANA
20:00 Legend Double Dagger -13.3 -14.6 90 32 28 16.1 102.11   -24 LegendNANA
21:00 Legend Double Dagger -14.4 -15.6 91 31 21 16.1 102.13   -24 LegendNANA
22:00 Legend Double Dagger -11.7 -12.8 92 31 22 16.1 102.11   -20 LegendNANA
23:00 Legend Double Dagger -12.7 -13.9 91 30 24 16.1 102.09   -22 LegendNANA

Notes on Data Quality.

Legend

  • E = Estimated
  • M = Missing
  • NA = Not Available
  • ‡ = Partner data that is not subject to review by the National Climate Archives
Date modified: